CCCPS SCSE-SCEL

Flight info

Callsign CCCPS
Flight time 0h 38m
Altitude 31000
Route ISGUD7 ISGUD DCT SIMOK SIMOK7B
Aircraft C750/M-SDFGHIRWXYZ/C

Departure

Time 2026-04-26 02:50
Airport La Florida Airport (SCSE)

Arrival

Time 2026-04-26 03:29
Airport Comodoro Arturo Merino Benítez International Airport (SCEL)
Time Latitude Longitude Altitude Speed Heading
2026-04-26 02:36 -29.91711 -71.20122 476 ft 0 kts 207°
2026-04-26 02:47 -29.91711 -71.20126 476 ft 1 kts 257°
2026-04-26 02:47 -29.91697 -71.20129 473 ft 3 kts 339°
2026-04-26 02:48 -29.91676 -71.20159 476 ft 6 kts 311°
2026-04-26 02:48 -29.91651 -71.20148 476 ft 11 kts 32°
2026-04-26 02:48 -29.91557 -71.20150 475 ft 20 kts 305°
2026-04-26 02:48 -29.91477 -71.20336 478 ft 28 kts 295°
2026-04-26 02:49 -29.91386 -71.20550 479 ft 29 kts 296°
2026-04-26 02:49 -29.91303 -71.20749 477 ft 25 kts 290°
2026-04-26 02:49 -29.91290 -71.20857 477 ft 4 kts 307°
2026-04-26 02:49 -29.91254 -71.20833 477 ft 3 kts 88°
2026-04-26 02:50 -29.91309 -71.20732 474 ft 45 kts 117°
2026-04-26 02:50 -29.91618 -71.20001 518 ft 139 kts 116°
2026-04-26 02:50 -29.92043 -71.19019 1269 ft 135 kts 116°
2026-04-26 02:50 -29.92493 -71.17959 1814 ft 158 kts 116°
2026-04-26 02:51 -29.93018 -71.16734 2283 ft 183 kts 116°
2026-04-26 02:51 -29.93605 -71.15353 2842 ft 201 kts 116°
2026-04-26 02:51 -29.94252 -71.13832 3306 ft 225 kts 117°
2026-04-26 02:51 -29.95035 -71.12140 3870 ft 247 kts 125°
2026-04-26 02:52 -29.96261 -71.10690 4552 ft 264 kts 139°
2026-04-26 02:52 -29.97654 -71.09312 5647 ft 265 kts 140°
2026-04-26 02:52 -29.99043 -71.07872 6618 ft 271 kts 137°
2026-04-26 02:52 -30.00434 -71.06365 7587 ft 277 kts 137°
2026-04-26 02:53 -30.01872 -71.04828 8589 ft 285 kts 137°
2026-04-26 02:53 -30.03359 -71.03260 9587 ft 293 kts 137°
2026-04-26 02:53 -30.04898 -71.01631 10296 ft 309 kts 137°
2026-04-26 02:53 -30.06536 -70.99888 10808 ft 327 kts 137°
2026-04-26 02:54 -30.08237 -70.98095 11778 ft 326 kts 139°
2026-04-26 02:54 -30.10204 -70.96791 12490 ft 331 kts 163°
2026-04-26 02:54 -30.12443 -70.96309 13516 ft 327 kts 172°
2026-04-26 02:54 -30.14735 -70.95913 14377 ft 330 kts 173°
2026-04-26 02:55 -30.17012 -70.95496 15169 ft 333 kts 173°
2026-04-26 02:55 -30.19311 -70.95055 15954 ft 337 kts 173°
2026-04-26 02:55 -30.21637 -70.94618 16806 ft 339 kts 174°
2026-04-26 02:55 -30.23978 -70.94187 17668 ft 342 kts 174°
2026-04-26 02:56 -30.26340 -70.93749 18532 ft 345 kts 175°
2026-04-26 02:56 -30.28724 -70.93303 19273 ft 350 kts 175°
2026-04-26 02:56 -30.31144 -70.92850 20006 ft 355 kts 175°
2026-04-26 02:56 -30.33606 -70.92391 20773 ft 360 kts 176°
2026-04-26 02:57 -30.36101 -70.91925 21541 ft 366 kts 176°
2026-04-26 02:57 -30.38633 -70.91452 22304 ft 371 kts 176°
2026-04-26 02:57 -30.41208 -70.90971 23043 ft 377 kts 177°
2026-04-26 02:57 -30.43820 -70.90482 23745 ft 382 kts 177°
2026-04-26 02:58 -30.46457 -70.89987 24486 ft 384 kts 178°
2026-04-26 02:58 -30.49111 -70.89488 25121 ft 389 kts 178°
2026-04-26 02:58 -30.51801 -70.88987 25754 ft 394 kts 178°
2026-04-26 02:58 -30.54524 -70.88590 26405 ft 391 kts 184°
2026-04-26 02:59 -30.57157 -70.88360 27814 ft 370 kts 185°
2026-04-26 02:59 -30.59741 -70.88117 28455 ft 376 kts 185°
2026-04-26 02:59 -30.62367 -70.87873 29164 ft 381 kts 185°
2026-04-26 02:59 -30.65023 -70.87624 29885 ft 384 kts 186°
2026-04-26 03:00 -30.67702 -70.87375 30446 ft 389 kts 186°
2026-04-26 03:00 -30.70399 -70.87121 30946 ft 385 kts 186°
2026-04-26 03:00 -30.73118 -70.86871 31089 ft 401 kts 187°
2026-04-26 03:00 -30.75972 -70.86625 31085 ft 421 kts 186°
2026-04-26 03:01 -30.78957 -70.86344 31110 ft 438 kts 185°
2026-04-26 03:01 -30.82055 -70.86040 31113 ft 455 kts 185°
2026-04-26 03:01 -30.85260 -70.85736 31116 ft 466 kts 185°
2026-04-26 03:01 -30.88505 -70.85432 31116 ft 471 kts 185°
2026-04-26 03:02 -30.94975 -70.84824 31108 ft 474 kts 185°
2026-04-26 03:02 -30.98318 -70.84528 31112 ft 488 kts 185°
2026-04-26 03:02 -31.01759 -70.84205 31122 ft 502 kts 184°
2026-04-26 03:03 -31.08847 -70.83515 31111 ft 515 kts 184°
2026-04-26 03:03 -31.15980 -70.82852 31127 ft 515 kts 184°
2026-04-26 03:04 -31.23103 -70.82176 31143 ft 513 kts 184°
2026-04-26 03:04 -31.30239 -70.81506 31147 ft 515 kts 184°
2026-04-26 03:05 -31.37306 -70.81555 31143 ft 501 kts 194°
2026-04-26 03:05 -31.44262 -70.82251 31135 ft 502 kts 193°
2026-04-26 03:06 -31.51176 -70.82918 31147 ft 494 kts 194°
2026-04-26 03:06 -31.56856 -70.83498 31144 ft 496 kts 193°
2026-04-26 03:07 -31.63777 -70.84165 31155 ft 495 kts 193°
2026-04-26 03:07 -31.70666 -70.84860 31140 ft 497 kts 193°
2026-04-26 03:08 -31.77622 -70.85231 30976 ft 495 kts 187°
2026-04-26 03:08 -31.81025 -70.85076 30306 ft 470 kts 186°
2026-04-26 03:08 -31.84171 -70.84952 29660 ft 447 kts 187°
2026-04-26 03:09 -31.87272 -70.84868 29079 ft 432 kts 187°
2026-04-26 03:09 -31.90260 -70.84782 28513 ft 430 kts 187°
2026-04-26 03:09 -31.93267 -70.84670 27948 ft 432 kts 186°
2026-04-26 03:09 -31.96272 -70.84549 27376 ft 429 kts 186°
2026-04-26 03:10 -31.99240 -70.84441 26818 ft 424 kts 186°
2026-04-26 03:10 -32.02185 -70.84344 26258 ft 421 kts 186°
2026-04-26 03:10 -32.05105 -70.84242 25701 ft 417 kts 185°
2026-04-26 03:10 -32.08002 -70.84136 25152 ft 413 kts 185°
2026-04-26 03:11 -32.10865 -70.84031 24607 ft 410 kts 185°
2026-04-26 03:11 -32.13660 -70.83931 24076 ft 404 kts 185°
2026-04-26 03:11 -32.16460 -70.83833 23519 ft 401 kts 185°
2026-04-26 03:11 -32.19234 -70.83734 22971 ft 396 kts 185°
2026-04-26 03:12 -32.21979 -70.83636 22457 ft 394 kts 184°
2026-04-26 03:12 -32.24711 -70.83538 21930 ft 391 kts 184°
2026-04-26 03:12 -32.27425 -70.83440 21422 ft 389 kts 184°
2026-04-26 03:12 -32.30111 -70.83343 20918 ft 384 kts 184°
2026-04-26 03:13 -32.32791 -70.83249 20392 ft 384 kts 183°
2026-04-26 03:13 -32.35458 -70.83154 19896 ft 382 kts 183°
2026-04-26 03:13 -32.38111 -70.83057 19396 ft 379 kts 183°
2026-04-26 03:13 -32.40740 -70.82962 18901 ft 376 kts 182°
2026-04-26 03:14 -32.43350 -70.82868 18405 ft 374 kts 182°
2026-04-26 03:14 -32.45944 -70.82776 17872 ft 371 kts 182°
2026-04-26 03:14 -32.48524 -70.82682 17388 ft 369 kts 182°
2026-04-26 03:14 -32.51079 -70.82590 16906 ft 366 kts 182°
2026-04-26 03:15 -32.53574 -70.82500 16432 ft 365 kts 181°
2026-04-26 03:15 -32.56133 -70.82407 15953 ft 362 kts 181°
2026-04-26 03:15 -32.58604 -70.82315 15482 ft 340 kts 181°
2026-04-26 03:15 -32.60878 -70.82231 15038 ft 321 kts 181°
2026-04-26 03:16 -32.63060 -70.82154 14628 ft 306 kts 181°
2026-04-26 03:16 -32.65142 -70.82081 14237 ft 293 kts 181°
2026-04-26 03:16 -32.67140 -70.82008 13840 ft 281 kts 181°
2026-04-26 03:16 -32.69061 -70.81938 13464 ft 272 kts 181°
2026-04-26 03:17 -32.70935 -70.81873 13107 ft 268 kts 181°
2026-04-26 03:17 -32.72799 -70.81806 12764 ft 268 kts 180°
2026-04-26 03:17 -32.74663 -70.81738 12418 ft 268 kts 180°
2026-04-26 03:17 -32.76531 -70.81670 12067 ft 269 kts 180°
2026-04-26 03:18 -32.78402 -70.81602 11711 ft 269 kts 180°
2026-04-26 03:18 -32.80276 -70.81535 11358 ft 269 kts 179°
2026-04-26 03:18 -32.81934 -70.81474 11042 ft 269 kts 179°
2026-04-26 03:18 -32.83805 -70.81406 10613 ft 271 kts 179°
2026-04-26 03:19 -32.85691 -70.81337 10167 ft 269 kts 178°
2026-04-26 03:19 -32.87559 -70.81270 9780 ft 267 kts 178°
2026-04-26 03:19 -32.89402 -70.81203 9402 ft 264 kts 178°
2026-04-26 03:19 -32.91230 -70.81136 9050 ft 262 kts 178°
2026-04-26 03:20 -32.93041 -70.81271 8698 ft 260 kts 187°
2026-04-26 03:20 -32.94837 -70.81560 8370 ft 260 kts 187°
2026-04-26 03:20 -32.96631 -70.81825 8027 ft 259 kts 186°
2026-04-26 03:20 -32.98410 -70.82085 7686 ft 257 kts 186°
2026-04-26 03:21 -33.00178 -70.82345 7344 ft 254 kts 186°
2026-04-26 03:21 -33.01937 -70.82322 7007 ft 252 kts 176°
2026-04-26 03:21 -33.03689 -70.82209 6679 ft 252 kts 176°
2026-04-26 03:21 -33.05433 -70.82119 6471 ft 246 kts 176°
2026-04-26 03:22 -33.07119 -70.82029 6485 ft 243 kts 176°
2026-04-26 03:22 -33.08826 -70.81928 6497 ft 247 kts 176°
2026-04-26 03:22 -33.10556 -70.81827 6482 ft 250 kts 176°
2026-04-26 03:22 -33.12295 -70.81728 6242 ft 255 kts 176°
2026-04-26 03:23 -33.13492 -70.81660 6027 ft 255 kts 176°
2026-04-26 03:24 -33.15007 -70.81574 5744 ft 252 kts 176°
2026-04-26 03:24 -33.16562 -70.81485 5446 ft 248 kts 177°
2026-04-26 03:24 -33.18279 -70.81385 5134 ft 245 kts 176°
2026-04-26 03:24 -33.19974 -70.81288 4812 ft 243 kts 177°
2026-04-26 03:25 -33.21630 -70.81201 4505 ft 230 kts 177°
2026-04-26 03:25 -33.23162 -70.81120 4207 ft 218 kts 177°
2026-04-26 03:25 -33.24683 -70.81041 3922 ft 215 kts 177°
2026-04-26 03:25 -33.26176 -70.80961 3648 ft 215 kts 176°
2026-04-26 03:26 -33.27617 -70.80884 3367 ft 199 kts 176°
2026-04-26 03:26 -33.28939 -70.80814 3108 ft 183 kts 177°
2026-04-26 03:26 -33.30187 -70.80748 2945 ft 171 kts 177°
2026-04-26 03:26 -33.31367 -70.80684 2753 ft 173 kts 176°
2026-04-26 03:27 -33.32575 -70.80619 2492 ft 173 kts 176°
2026-04-26 03:27 -33.33489 -70.80570 2305 ft 155 kts 176°
2026-04-26 03:27 -33.34473 -70.80518 2097 ft 130 kts 177°
2026-04-26 03:27 -33.35333 -70.80472 1934 ft 120 kts 178°
2026-04-26 03:28 -33.36167 -70.80427 1782 ft 118 kts 178°
2026-04-26 03:28 -33.36992 -70.80385 1652 ft 114 kts 178°
2026-04-26 03:28 -33.37720 -70.80352 1570 ft 103 kts 178°
2026-04-26 03:28 -33.38246 -70.80321 1569 ft 56 kts 175°
2026-04-26 03:29 -33.38481 -70.80303 1569 ft 50 kts 176°
2026-04-26 03:29 -33.38814 -70.80290 1571 ft 42 kts 176°
2026-04-26 03:29 -33.39089 -70.80271 1570 ft 33 kts 175°
2026-04-26 03:29 -33.39303 -70.80218 1569 ft 26 kts 154°
2026-04-26 03:30 -33.39456 -70.80107 1564 ft 20 kts 146°
2026-04-26 03:30 -33.39528 -70.80000 1562 ft 14 kts 96°
2026-04-26 03:30 -33.39524 -70.79890 1561 ft 9 kts 65°
2026-04-26 03:30 -33.39498 -70.79882 1561 ft 8 kts
2026-04-26 03:31 -33.39429 -70.79884 1561 ft 14 kts 357°
2026-04-26 03:31 -33.39344 -70.79858 1561 ft 14 kts 69°
2026-04-26 03:31 -33.39336 -70.79689 1561 ft 22 kts 88°
2026-04-26 03:31 -33.39328 -70.79498 1561 ft 20 kts 87°
2026-04-26 03:32 -33.39321 -70.79335 1561 ft 17 kts 88°
2026-04-26 03:32 -33.39317 -70.79209 1561 ft 11 kts 88°
2026-04-26 03:32 -33.39297 -70.79149 1561 ft 9 kts 38°
2026-04-26 03:32 -33.39238 -70.79143 1561 ft 8 kts 355°
2026-04-26 03:33 -33.39212 -70.79177 1561 ft 5 kts 272°
2026-04-26 03:33 -33.39212 -70.79186 1561 ft 0 kts 270°